CW0214 Weather Reports


Display with metric or nautical units.
time (UTC)temp
F
wind
direction
speed
MPH
gust
MPH
rain 1hr
in
rain 24hr
in
rain mn
in
humidity
%
barometer
mb
20260503220404 56 132 0.0 3.0 0.00 0.09 0.09 89 1016.2
20260503215404 56 132 0.0 1.0 0.00 0.09 0.09 89 1016.3
20260503214404 56 151 2.0 6.0 0.00 0.09 0.09 88 1016.3
20260503213904 56 137 1.0 7.0 0.00 0.09 0.09 88 1016.3
20260503212904 57 111 0.0 5.0 0.00 0.09 0.09 88 1016.3
20260503212404 57 103 0.0 5.0 0.00 0.09 0.09 88 1016.2
20260503211904 57 120 0.0 8.0 0.00 0.09 0.09 87 1016.1
20260503211404 57 82 2.0 9.0 0.00 0.09 0.09 87 1016.1
20260503210904 57 116 3.0 7.0 0.00 0.09 0.09 87 1016.0
20260503205904 57 119 1.0 9.0 0.00 0.09 0.09 87 1016.0
20260503205404 57 136 1.0 10.0 0.00 0.09 0.09 87 1015.9
20260503204904 57 125 0.0 9.0 0.00 0.09 0.09 86 1015.9
20260503204405 57 116 4.0 9.0 0.00 0.09 0.09 86 1015.9
20260503203905 57 154 3.0 8.0 0.00 0.09 0.09 86 1015.7
20260503203404 57 113 2.0 9.0 0.00 0.09 0.09 86 1015.7
20260503202905 57 83 2.0 6.0 0.00 0.09 0.09 86 1015.6
20260503202404 57 118 5.0 10.0 0.00 0.09 0.09 86 1015.5
20260503201904 58 156 2.0 8.0 0.00 0.09 0.09 86 1015.4
20260503201405 58 128 1.0 7.0 0.00 0.09 0.09 86 1015.3
20260503200404 58 158 0.0 10.0 0.00 0.09 0.09 86 1015.1
20260503195404 58 107 0.0 5.0 0.00 0.09 0.09 86 1015.1
20260503194904 58 149 1.0 5.0 0.00 0.09 0.09 85 1015.0
20260503194404 58 117 0.0 0.0 0.00 0.09 0.09 85 1015.1
20260503193904 58 117 1.0 7.0 0.00 0.09 0.09 84 1015.0
20260503193404 59 131 0.0 0.0 0.00 0.09 0.09 84 1015.0
20260503192905 59 124 1.0 7.0 0.00 0.09 0.09 84 1014.9
20260503191405 59 98 0.0 6.0 0.00 0.09 0.09 83 1014.8
20260503190906 59 97 1.0 7.0 0.00 0.09 0.09 83 1014.8
20260503190405 60 68 2.0 10.0 0.00 0.09 0.09 83 1014.7
20260503184905 60 51 0.0 5.0 0.00 0.09 0.09 84 1014.5
20260503184405 61 77 3.0 8.0 0.00 0.09 0.09 84 1014.5
20260503183906 61 93 3.0 7.0 0.00 0.09 0.09 84 1014.5
20260503183405 61 142 1.0 10.0 0.00 0.09 0.09 84 1014.3
20260503182905 61 135 4.0 8.0 0.00 0.09 0.09 84 1014.4
20260503182405 62 108 2.0 6.0 0.00 0.09 0.09 85 1014.3
20260503181906 62 108 0.0 2.0 0.00 0.09 0.09 86 1014.4
20260503181405 61 114 1.0 6.0 0.00 0.09 0.09 87 1014.4
20260503180905 61 129 3.0 8.0 0.02 0.09 0.09 88 1014.3
20260503175905 61 74 0.0 3.0 0.02 0.09 0.09 88 1014.4
20260503175405 60 74 0.0 0.0 0.03 0.09 0.09 88 1014.4
20260503174905 60 74 0.0 0.0 0.03 0.09 0.09 89 1014.4
20260503174405 61 74 0.0 0.0 0.03 0.09 0.09 88 1014.4
20260503173905 60 188 0.0 3.0 0.04 0.09 0.09 88 1014.4
20260503172905 60 137 0.0 3.0 0.06 0.09 0.09 88 1014.3
20260503172406 60 136 0.0 3.0 0.06 0.09 0.09 89 1014.4
20260503171905 60 136 0.0 2.0 0.06 0.09 0.09 89 1014.4
20260503171405 60 186 0.0 3.0 0.09 0.09 0.09 88 1014.2
20260503150905 66 117 5.0 10.0 0.00 0.00 0.00 68 1014.2
20260503130405 66 124 3.0 9.0 0.00 0.00 0.00 67 1014.9
20260503110405 65 58 3.0 8.0 0.00 0.00 0.00 64 1015.4
20260503090405 60 122 1.0 5.0 0.00 0.00 0.00 87 1016.0
20260503081405 56 152 1.0 5.0 0.00 0.00 0.00 95 1016.1
20260503080904 56 168 0.0 0.0 0.00 0.00 0.00 95 1016.0
20260503072905 55 171 0.0 2.0 0.00 0.00 0.00 95 1015.8
20260503072405 55 171 0.0 2.0 0.00 0.00 0.00 95 1015.9
20260503071905 55 171 1.0 2.0 0.00 0.00 0.00 95 1015.8
20260503071405 55 171 0.0 0.0 0.00 0.00 0.00 95 1015.8
20260503070905 55 171 0.0 1.0 0.00 0.00 0.00 95 1015.8
20260503070405 55 171 0.0 0.0 0.00 0.00 0.00 95 1015.7
20260503054905 54 97 0.0 0.0 0.00 0.00 0.00 94 1015.3
20260503054404 54 97 0.0 0.0 0.00 0.00 0.00 94 1015.3
20260503053904 54 97 0.0 0.0 0.00 0.00 0.00 94 1015.3
20260503053405 54 97 0.0 0.0 0.00 0.00 0.00 94 1015.3
20260503052905 54 97 0.0 0.0 0.00 0.00 0.00 94 1015.3
20260503052405 54 97 0.0 0.0 0.00 0.00 0.00 94 1015.2
20260503051905 54 97 0.0 0.0 0.00 0.00 0.00 94 1015.2
20260503051405 54 97 0.0 0.0 0.00 0.00 0.00 94 1015.2
20260503050905 54 97 0.0 0.0 0.00 0.00 0.00 94 1015.3
20260503050405 54 97 0.0 0.0 0.00 0.00 0.00 94 1015.2
20260503045904 53 97 0.0 0.0 0.00 0.00 0.00 94 1015.1
20260503045405 54 97 0.0 0.0 0.00 0.00 0.00 93 1015.0
20260503044905 54 97 0.0 0.0 0.00 0.00 0.00 93 1015.1
20260503044405 54 97 0.0 0.0 0.00 0.00 0.00 93 1015.1
20260503043405 55 97 0.0 0.0 0.00 0.00 0.00 93 1015.0
20260503042905 54 97 0.0 0.0 0.00 0.00 0.00 93 1015.0
20260503041904 54 97 0.0 0.0 0.00 0.00 0.00 93 1015.1
20260503041405 54 97 0.0 0.0 0.00 0.00 0.00 93 1015.1
20260503040906 54 97 0.0 0.0 0.00 0.00 0.00 93 1015.2
20260503040404 54 97 0.0 0.0 0.00 0.00 0.00 92 1015.2
20260503035404 55 97 0.0 0.0 0.00 0.00 0.00 93 1015.2
20260503034905 55 97 0.0 1.0 0.00 0.00 0.00 93 1015.2
20260503034405 55 97 0.0 2.0 0.00 0.00 0.00 93 1015.2
20260503033405 55 97 0.0 0.0 0.00 0.00 0.00 92 1015.2
20260503032905 55 97 0.0 0.0 0.00 0.00 0.00 92 1015.4
20260503031905 56 97 0.0 1.0 0.00 0.00 0.00 92 1015.4
20260503031405 56 97 0.0 0.0 0.00 0.00 0.00 91 1015.4
20260503030904 56 97 0.0 0.0 0.00 0.00 0.00 91 1015.4
20260503030405 56 97 0.0 0.0 0.00 0.00 0.00 91 1015.4
20260503025904 56 97 0.0 3.0 0.00 0.00 0.00 91 1015.4
20260503025405 56 97 0.0 1.0 0.00 0.00 0.00 91 1015.4
20260503024905 57 97 0.0 3.0 0.00 0.00 0.00 91 1015.6
20260503024405 57 97 0.0 3.0 0.00 0.00 0.00 91 1015.6
20260503023906 57 97 0.0 1.0 0.00 0.00 0.00 91 1015.7
20260503023404 57 97 0.0 2.0 0.00 0.00 0.00 91 1015.7
20260503022904 57 97 0.0 2.0 0.00 0.00 0.00 91 1015.7
20260503022405 57 97 1.0 3.0 0.00 0.00 0.00 91 1015.7
20260503021405 57 97 0.0 0.0 0.00 0.00 0.00 90 1015.8
20260503020404 57 97 0.0 0.0 0.00 0.00 0.00 90 1015.8
20260503013904 57 97 0.0 1.0 0.00 0.00 0.00 90 1015.9
20260503013405 57 97 1.0 2.0 0.00 0.00 0.00 90 1016.0
20260503012905 57 97 0.0 0.0 0.00 0.00 0.00 90 1016.0
20260503012405 57 97 0.0 0.0 0.00 0.00 0.00 90 1016.0
20260503011905 57 97 0.0 0.0 0.00 0.00 0.00 90 1016.1
20260503011405 57 97 0.0 0.0 0.00 0.00 0.00 90 1016.1
20260503010905 57 97 0.0 0.0 0.00 0.00 0.00 89 1016.2
20260503005905 58 97 0.0 1.0 0.00 0.00 0.00 89 1016.2
20260503005405 58 97 0.0 3.0 0.00 0.00 0.00 89 1016.3
20260503004905 58 97 0.0 2.0 0.00 0.00 0.00 89 1016.3
20260503004404 58 97 0.0 0.0 0.00 0.00 0.00 88 1016.3
20260503003905 58 97 0.0 0.0 0.00 0.00 0.00 89 1016.4
20260503003405 58 97 0.0 0.0 0.00 0.00 0.00 88 1016.4
20260503002905 58 97 0.0 0.0 0.00 0.00 0.00 89 1016.5
20260503002406 58 97 0.0 1.0 0.00 0.00 0.00 88 1016.5
20260503001905 58 97 0.0 2.0 0.00 0.00 0.00 88 1016.5
20260503000905 58 97 0.0 0.0 0.00 0.00 0.00 88 1016.5
20260503000404 58 97 0.0 0.0 0.00 0.00 0.00 88 1016.6
20260502235906 58 97 0.0 0.0 0.00 0.00 0.00 88 1016.6
20260502234904 59 97 1.0 3.0 0.00 0.00 0.00 87 1016.7
20260502233905 59 97 0.0 3.0 0.00 0.00 0.00 87 1016.8
20260502233405 59 97 1.0 3.0 0.00 0.00 0.00 87 1016.8
20260502232905 59 97 1.0 3.0 0.00 0.00 0.00 86 1016.8
20260502232404 59 98 2.0 7.0 0.00 0.00 0.00 86 1016.8
20260502231905 60 84 1.0 5.0 0.00 0.00 0.00 85 1016.8
20260502231405 60 72 3.0 6.0 0.00 0.00 0.00 85 1016.7
20260502230904 60 104 2.0 8.0 0.00 0.00 0.00 85 1016.7
20260502225905 60 102 1.0 5.0 0.00 0.00 0.00 84 1016.8
20260502225405 60 102 5.0 9.0 0.00 0.00 0.00 84 1016.8
20260502224905 60 101 5.0 10.0 0.00 0.00 0.00 83 1016.7
20260502223407 61 116 3.0 10.0 0.00 0.00 0.00 83 1016.8
20260502222404 61 95 2.0 7.0 0.00 0.00 0.00 83 1016.7
20260502221905 61 99 3.0 7.0 0.00 0.00 0.00 83 1016.7
20260502221405 61 113 3.0 6.0 0.00 0.00 0.00 83 1016.7